This demonstration page uses our WeatherBlox Daily Observations layout. Learn more.

Left ArrowRight Arrow

40.92945, -100.16068

Hourly Observations for April 29, 2021

Temp ( °F °C ) Dew Point ( °F °C ) Humidity (%) Winds ( mph kmh ) Pressure ( in mb ) Visibility ( mi km ) Precip ( " mm )
12:15 am 00:15 Clear 45 7.4 44 6.6 95 95 NW 7 11 30.09 1019 10 16 N/A
12:35 am 00:35 Clear 44 6.7 43 6 95 95 NW 8 13 30.09 1019 10 16 N/A
12:55 am 00:55 Clear 46 7.5 44 6.8 95 95 WNW 10 17 30.08 1019 10 16 N/A
1:15 am 01:15 Clear 46 7.6 44 6.6 93 93 WNW 9 15 30.09 1019 10 16 N/A
1:35 am 01:35 Clear 45 7.2 43 6.3 94 94 WNW 6 9 30.10 1019 10 16 N/A
1:55 am 01:55 Clear 44 6.8 43 6 95 95 WNW 7 11 30.09 1019 10 16 N/A
2:15 am 02:15 Clear 44 6.5 42 5.7 95 95 WNW 8 13 30.09 1019 10 16 N/A
2:35 am 02:35 Clear 43 6.2 42 5.5 95 95 WNW 8 13 30.10 1019 10 16 N/A
2:55 am 02:55 Clear 43 6.3 42 5.3 93 93 WNW 7 11 30.10 1019 10 16 N/A
3:15 am 03:15 Clear 43 6.1 41 5.2 94 94 WNW 8 13 30.10 1019 10 16 N/A
3:35 am 03:35 Clear 42 5.8 41 5 95 95 WNW 6 9 30.10 1019 10 16 N/A
3:55 am 03:55 Clear 42 5.5 40 4.7 95 95 WNW 6 9 30.11 1020 10 16 N/A
4:15 am 04:15 Clear 41 5.2 40 4.6 96 96 WNW 6 9 30.11 1020 10 16 N/A
4:35 am 04:35 Clear 41 5.1 40 4.5 96 96 W 5 7 30.12 1020 10 16 N/A
4:55 am 04:55 Clear 41 5.1 40 4.3 95 95 W 6 9 30.13 1020 10 16 N/A
5:15 am 05:15 Clear 42 5.4 40 4.5 94 94 W 9 15 30.13 1020 10 16 N/A
5:35 am 05:35 Clear 42 5.5 40 4.5 93 93 WNW 10 17 30.13 1020 10 16 N/A
5:55 am 05:55 Clear 42 5.3 40 4.5 95 95 WNW 9 15 30.15 1021 10 16 N/A
6:15 am 06:15 Clear 42 5.6 40 4.7 94 94 WNW 10 17 30.15 1021 10 16 N/A
6:35 am 06:35 Clear 43 6 40 4.7 91 91 WNW 13 20 30.15 1021 10 16 N/A
6:55 am 06:55 Sunny 44 6.4 41 4.8 90 90 WNW 14 22 30.15 1021 10 16 N/A
7:15 am 07:15 Sunny 44 6.7 41 4.9 88 88 WNW 12 19 30.16 1021 10 16 N/A
7:35 am 07:35 Sunny 45 7 41 5 87 87 WNW 12 19 30.17 1022 10 16 N/A
7:55 am 07:55 Sunny 45 7.4 41 5 85 85 WNW 13 20 30.17 1022 10 16 N/A
8:15 am 08:15 Sunny 47 8.3 42 5.3 82 82 WNW 12 19 30.17 1022 10 16 N/A
8:35 am 08:35 Sunny 49 9.2 42 5.5 78 78 WNW 13 20 30.16 1021 10 16 N/A
8:55 am 08:55 Sunny 50 10.2 43 6.1 76 76 WNW 12 19 30.16 1021 10 16 N/A
9:15 am 09:15 Sunny 53 11.6 44 6.7 72 72 WNW 10 17 30.16 1021 10 16 N/A
9:35 am 09:35 Sunny 55 12.9 44 6.6 66 66 WNW 12 19 30.15 1021 10 16 N/A
9:55 am 09:55 Sunny 57 14.1 46 7.6 65 65 WNW 9 15 30.14 1021 10 16 N/A
10:15 am 10:15 Sunny 63 17.4 43 5.9 47 47 NNW 15 24 30.12 1020 10 16 N/A
10:35 am 10:35 Sunny 64 17.7 42 5.6 45 45 NNW 16 26 30.13 1020 10 16 N/A
10:55 am 10:55 Sunny 65 18.2 41 4.9 42 42 N 22 35 30.14 1021 10 16 N/A
11:15 am 11:15 Sunny 65 18.3 40 4.6 41 41 NNW 18 30 30.14 1021 10 16 N/A
11:35 am 11:35 Sunny 65 18.4 38 3.5 37 37 N 18 30 30.14 1020 10 16 N/A
11:55 am 11:55 Sunny 65 18.6 38 3.6 37 37 N 23 37 30.14 1021 10 16 N/A
12:15 pm 12:15 Sunny 66 18.9 40 4.2 38 38 N 16 26 30.14 1021 10 16 N/A
12:35 pm 12:35 Sunny 67 19.6 37 3 33 33 N 20 31 30.13 1020 10 16 N/A
12:55 pm 12:55 Sunny 68 19.9 36 2.4 31 31 N 15 24 30.13 1020 10 16 N/A
1:15 pm 13:15 Sunny 69 20.3 36 2.4 31 31 N 15 24 30.13 1020 10 16 N/A
1:35 pm 13:35 Sunny 69 20.7 36 2 29 29 N 21 33 30.12 1020 10 16 N/A
1:55 pm 13:55 Sunny 69 20.8 34 1.2 27 27 N 13 20 30.11 1020 10 16 N/A
2:15 pm 14:15 Sunny 70 21.1 33 0.5 25 25 NNW 21 33 30.11 1020 10 16 N/A
2:35 pm 14:35 Sunny 70 21.2 32 -0.2 24 24 N 12 19 30.11 1020 10 16 N/A
2:55 pm 14:55 Sunny 71 21.4 32 0.1 24 24 N 17 28 30.10 1019 10 16 N/A
3:15 pm 15:15 Sunny 71 21.8 31 -0.5 23 23 N 12 19 30.10 1019 10 16 N/A
3:35 pm 15:35 Sunny 72 22 31 -0.6 22 22 N 14 22 30.09 1019 10 16 N/A
3:55 pm 15:55 Sunny 72 22.4 32 -0.2 22 22 NNE 14 22 30.09 1019 10 16 N/A
4:15 pm 16:15 Sunny 72 22.4 32 -0.1 22 22 N 17 28 30.08 1019 10 16 N/A
4:35 pm 16:35 Sunny 72 22.1 30 -1 21 21 N 9 15 30.08 1019 10 16 N/A
4:55 pm 16:55 Sunny 72 22.3 31 -0.8 21 21 NNE 15 24 30.08 1019 10 16 N/A
8:55 pm 20:55 Clear 63 17.3 35 1.4 34 34 SE 6 9 30.14 1020 10 16 N/A
9:15 pm 21:15 Clear 63 17.2 35 1.5 35 35 SE 7 11 30.15 1021 10 16 N/A
9:35 pm 21:35 Clear 57 14 37 3 48 48 SSE 6 9 30.18 1022 10 16 N/A
9:55 pm 21:55 Clear 57 13.7 38 3.4 50 50 SSE 7 11 30.19 1022 10 16 N/A
10:15 pm 22:15 Clear 55 12.6 38 3.4 54 54 S 7 11 30.21 1023 10 16 N/A
10:35 pm 22:35 Clear 54 12.1 38 3.1 54 54 SSE 6 9 30.22 1023 10 16 N/A
10:55 pm 22:55 Clear 54 12.1 37 2.7 53 53 S 7 11 30.22 1023 10 16 N/A
11:15 pm 23:15 Clear 53 11.5 37 3 56 56 SSE 6 9 30.23 1024 10 16 N/A
11:35 pm 23:35 Clear 51 10.7 37 2.5 57 57 S 6 9 30.23 1024 10 16 N/A
11:55 pm 23:55 Clear 51 10.6 37 2.5 58 58 S 7 11 30.24 1024 10 16 N/A

Powered by AerisWeather